When you browse on this site, cookies collect data to enhance your experience and personalize the content and advertising you see.
Visit our Privacy Policy to learn more. By continuing to use the site, you agree to this use of cookies and data.
  • In Austria
  • List of Countries
  • For 7 days
  • Water Temperature
  • Satellite Maps
  • Weather Map
  • News
  • Weather Widgets
  • user-avatar
    Login

    Hourly Weather Algiers

    Today, 21 January, Monday

    Time Temperature Precipitation Wind Pressure Humidity
    00:00 +10°C° 0 mm 6 mps 744 mmHg 86%
    01:00 +10°C° 1 mm 6 mps 745 mmHg 85%
    02:00 +10°C° 1 mm 7 mps 745 mmHg 84%
    03:00 +10°C° 1 mm 7 mps 745 mmHg 84%
    04:00 +10°C° 1.3 mm 7 mps 745 mmHg 82%
    05:00 +10°C° 1.3 mm 6 mps 746 mmHg 81%
    06:00 +10°C° 0 mm 6 mps 746 mmHg 79%
    07:00 +10°C° 1.3 mm 5 mps 746 mmHg 79%
    08:00 +10°C° 1.3 mm 5 mps 747 mmHg 78%
    09:00 +11°C° 1.3 mm 4 mps 747 mmHg 77%
    10:00 +11°C° 1.5 mm 4 mps 747 mmHg 77%
    11:00 +11°C° 1.5 mm 4 mps 748 mmHg 76%
    12:00 +11°C° 1.5 mm 4 mps 748 mmHg 75%
    13:00 +11°C° 1.4 mm 4 mps 748 mmHg 75%
    14:00 +11°C° 1.4 mm 3 mps 748 mmHg 75%
    15:00 +11°C° 1.4 mm 3 mps 748 mmHg 75%
    16:00 +11°C° 1.4 mm 3 mps 748 mmHg 76%
    17:00 +10°C° 1.4 mm 2 mps 748 mmHg 78%
    18:00 +10°C° 1.4 mm 2 mps 749 mmHg 79%
    19:00 +10°C° 0.9 mm 2 mps 749 mmHg 79%
    20:00 +9°C° 0.9 mm 2 mps 749 mmHg 80%
    21:00 +9°C° 0.9 mm 2 mps 750 mmHg 81%
    22:00 +9°C° 0.6 mm 2 mps 750 mmHg 81%
    23:00 +9°C° 0.6 mm 2 mps 750 mmHg 81%

    Tomorrow, 22 January, Tuesday

    Time Temperature Precipitation Wind Pressure Humidity
    00:00 +9°C° 0.6 mm 2 mps 750 mmHg 82%
    01:00 +9°C° 0.8 mm 2 mps 750 mmHg 82%
    02:00 +8°C° 0.8 mm 2 mps 749 mmHg 82%
    03:00 +8°C° 0.8 mm 2 mps 749 mmHg 82%
    04:00 +8°C° 0.4 mm 2 mps 749 mmHg 80%
    05:00 +8°C° 0.4 mm 3 mps 749 mmHg 78%
    06:00 +8°C° 0.4 mm 3 mps 749 mmHg 76%
    07:00 +8°C° 0.2 mm 4 mps 749 mmHg 73%
    08:00 +8°C° 0.2 mm 5 mps 749 mmHg 70%
    09:00 +9°C° 0.2 mm 5 mps 749 mmHg 67%
    10:00 +9°C° 0.1 mm 6 mps 749 mmHg 63%
    11:00 +10°C° 0.1 mm 6 mps 749 mmHg 58%
    12:00 +11°C° 0.1 mm 7 mps 748 mmHg 54%
    13:00 +11°C° 0.1 mm 7 mps 748 mmHg 55%
    14:00 +11°C° 0.1 mm 7 mps 747 mmHg 55%
    15:00 +11°C° 0.1 mm 8 mps 746 mmHg 56%
    16:00 +10°C° 0.1 mm 7 mps 746 mmHg 56%
    17:00 +9°C° 0.1 mm 7 mps 746 mmHg 57%
    18:00 +9°C° 0.1 mm 7 mps 746 mmHg 58%
    19:00 +9°C° 0.2 mm 7 mps 746 mmHg 59%
    20:00 +9°C° 0.2 mm 6 mps 746 mmHg 60%
    21:00 +9°C° 0.2 mm 6 mps 745 mmHg 61%
    22:00 +9°C° 0.4 mm 6 mps 745 mmHg 64%
    23:00 +9°C° 0.4 mm 7 mps 744 mmHg 66%

    Day after tomorrow, 23 January, Wednesday

    Time Temperature Precipitation Wind Pressure Humidity
    00:00 +9°C° 0.4 mm 7 mps 744 mmHg 69%
    01:00 +8°C° 1.3 mm 7 mps 743 mmHg 74%
    02:00 +8°C° 1.3 mm 7 mps 743 mmHg 79%
    03:00 +8°C° 1.3 mm 7 mps 742 mmHg 85%
    04:00 +8°C° 1.2 mm 7 mps 742 mmHg 80%
    05:00 +9°C° 1.2 mm 7 mps 742 mmHg 74%
    06:00 +9°C° 1.2 mm 7 mps 742 mmHg 69%
    07:00 +9°C° 0.5 mm 8 mps 742 mmHg 67%
    08:00 +10°C° 0.5 mm 8 mps 742 mmHg 65%
    09:00 +10°C° 0.5 mm 8 mps 743 mmHg 64%
    10:00 +10°C° 0.3 mm 9 mps 742 mmHg 63%
    11:00 +11°C° 0.3 mm 11 mps 742 mmHg 62%
    12:00 +10°C° 0.3 mm 12 mps 741 mmHg 61%
    13:00 +10°C° 0.9 mm 13 mps 741 mmHg 63%
    14:00 +10°C° 0.9 mm 14 mps 740 mmHg 65%
    15:00 +10°C° 0.9 mm 15 mps 739 mmHg 67%
    16:00 +10°C° 1.4 mm 14 mps 739 mmHg 69%
    17:00 +10°C° 1.4 mm 14 mps 739 mmHg 71%
    18:00 +10°C° 1.4 mm 14 mps 739 mmHg 72%
    19:00 +10°C° 2.5 mm 14 mps 739 mmHg 73%
    20:00 +10°C° 2.5 mm 13 mps 739 mmHg 73%
    21:00 +10°C° 2.5 mm 13 mps 739 mmHg 74%
    22:00 +10°C° 0.7 mm 14 mps 739 mmHg 67%
    23:00 +10°C° 0.7 mm 14 mps 739 mmHg 60%

    24 January, Thursday

    Time Temperature Precipitation Wind Pressure Humidity
    00:00 +10°C° 0.7 mm 15 mps 739 mmHg 53%
    01:00 +9°C° 0.5 mm 15 mps 739 mmHg 55%
    02:00 +9°C° 0.5 mm 15 mps 739 mmHg 56%
    03:00 +8°C° 0.5 mm 15 mps 738 mmHg 57%
    04:00 +6°C° 0.7 mm 14 mps 739 mmHg 57%
    05:00 +7°C° 0.7 mm 13 mps 739 mmHg 57%
    06:00 +5°C° 0.7 mm 13 mps 740 mmHg 57%
    07:00 +5°C° 0.6 mm 12 mps 741 mmHg 55%
    08:00 +6°C° 0.6 mm 11 mps 741 mmHg 53%
    09:00 +6°C° 0.6 mm 11 mps 742 mmHg 52%
    10:00 +7°C° 0.4 mm 10 mps 743 mmHg 52%
    11:00 +7°C° 0.4 mm 10 mps 743 mmHg 52%
    12:00 +8°C° 0.4 mm 10 mps 744 mmHg 52%
    13:00 +8°C° 0.2 mm 9 mps 744 mmHg 54%
    14:00 +8°C° 0.2 mm 9 mps 744 mmHg 56%
    15:00 +7°C° 0.2 mm 8 mps 744 mmHg 58%
    16:00 +8°C° 0.1 mm 7 mps 745 mmHg 59%
    17:00 +8°C° 0.1 mm 7 mps 745 mmHg 61%
    18:00 +8°C° 0.1 mm 6 mps 746 mmHg 62%
    19:00 +8°C° 0.2 mm 6 mps 747 mmHg 63%
    20:00 +8°C° 0.2 mm 6 mps 747 mmHg 65%
    21:00 +8°C° 0.2 mm 6 mps 748 mmHg 66%
    22:00 +8°C° 0.2 mm 5 mps 748 mmHg 66%
    23:00 +8°C° 0.2 mm 4 mps 748 mmHg 66%

    25 January, Friday

    Time Temperature Precipitation Wind Pressure Humidity
    00:00 +9°C° 0.2 mm 3 mps 749 mmHg 66%
    01:00 +8°C° 0.2 mm 4 mps 749 mmHg 67%
    02:00 +8°C° 0.2 mm 4 mps 748 mmHg 67%
    03:00 +8°C° 0.2 mm 4 mps 748 mmHg 67%
    04:00 +7°C° 0.2 mm 5 mps 748 mmHg 66%
    05:00 +7°C° 0.2 mm 5 mps 749 mmHg 66%
    06:00 +7°C° 0.2 mm 6 mps 749 mmHg 65%
    07:00 +8°C° 0.2 mm 6 mps 749 mmHg 62%
    08:00 +9°C° 0.2 mm 5 mps 750 mmHg 59%
    09:00 +10°C° 0.2 mm 5 mps 750 mmHg 57%
    10:00 +10°C° 0.1 mm 5 mps 750 mmHg 55%
    11:00 +11°C° 0.1 mm 6 mps 751 mmHg 54%
    12:00 +11°C° 0.1 mm 7 mps 751 mmHg 52%
    13:00 +11°C° 0 mm 6 mps 751 mmHg 52%
    14:00 +11°C° 0 mm 6 mps 750 mmHg 52%
    15:00 +13°C° 0 mm 6 mps 750 mmHg 52%
    16:00 +12°C° 0 mm 5 mps 750 mmHg 54%
    17:00 +10°C° 0 mm 5 mps 751 mmHg 57%
    18:00 +10°C° 0 mm 4 mps 751 mmHg 59%
    19:00 +10°C° 0 mm 4 mps 751 mmHg 60%
    20:00 +10°C° 0 mm 4 mps 752 mmHg 60%
    21:00 +10°C° 0 mm 4 mps 752 mmHg 60%
    22:00 +10°C° 0 mm 4 mps 752 mmHg 59%
    23:00 +10°C° 0 mm 4 mps 752 mmHg 59%

    26 January, Saturday

    Time Temperature Precipitation Wind Pressure Humidity
    00:00 +8°C° 0 mm 4 mps 752 mmHg 58%
    01:00 +8°C° 0 mm 4 mps 752 mmHg 56%
    02:00 +8°C° 0 mm 4 mps 752 mmHg 54%
    03:00 +8°C° 0 mm 4 mps 752 mmHg 52%
    04:00 +8°C° 0 mm 4 mps 752 mmHg 50%
    05:00 +8°C° 0 mm 4 mps 752 mmHg 48%
    06:00 +8°C° 0 mm 4 mps 752 mmHg 46%
    07:00 +10°C° 0 mm 3 mps 752 mmHg 45%
    08:00 +11°C° 0 mm 3 mps 752 mmHg 44%
    09:00 +12°C° 0 mm 3 mps 752 mmHg 43%
    10:00 +13°C° 0 mm 3 mps 752 mmHg 42%
    11:00 +14°C° 0 mm 3 mps 752 mmHg 41%
    12:00 +17°C° 0 mm 2 mps 751 mmHg 39%
    13:00 +17°C° 0 mm 2 mps 751 mmHg 41%
    14:00 +17°C° 0 mm 3 mps 750 mmHg 43%
    15:00 +17°C° 0 mm 3 mps 750 mmHg 45%
    16:00 +16°C° 0 mm 2 mps 749 mmHg 49%
    17:00 +15°C° 0 mm 2 mps 749 mmHg 54%
    18:00 +14°C° 0 mm 1 mps 749 mmHg 58%
    19:00 +13°C° 0 mm 2 mps 749 mmHg 58%
    20:00 +13°C° 0 mm 2 mps 749 mmHg 59%
    21:00 +12°C° 0 mm 3 mps 749 mmHg 59%
    22:00 +12°C° 0 mm 3 mps 749 mmHg 58%
    23:00 +12°C° 0 mm 3 mps 748 mmHg 57%
    Show more